User: anonymous   Login
Location: Bailleul
(50.3375°N, 2.8513°E)
Time: 12:32:04
(UTC+00:00)
Language:

Cosmos 1606 - Orbit

View from above orbital plane
View from above orbital plane
View from above satellite
View from above satellite

Ground track
Ground track

The orbit data is extracted from the following two-line orbital elements,

1 15369U 84111A   21170.95306580  .00000671  00000-0  32063-4 0  9998
2 15369  82.5276 120.9354 0016176 212.8094 147.2136 15.17163694  2286
Epoch (UTC): 19 June 2021 22:52:24
Eccentricity: 0.0016176
inclination: 82.5276°
perigee height: 503 km
apogee height: 525 km
right ascension of ascending node: 120.9354°
argument of perigee: 212.8094°
revolutions per day: 15.17163694
mean anomaly at epoch: 147.2136°
orbit number at epoch: 228

The dashed part of the orbit path shows where the satellite is in the earth's shadow,  

DLR